COSMOS 2251 DEB, 37993

Orbit data source: Space-Track

COSMOS 2251 DEB, 37993 is space debris in LEO originally from a launch on Wed, 16 Jun 1993 UTC launched from the Plesetsk Missile And Space Complex (PKMTR). The debris from Iridium 33, an American commercial communications satellite, has been tracked extensively since its accidental collision with the defunct Russian satellite Cosmos 2251 in 2009. This event, occurring at high speed in low Earth orbit (LEO), generated thousands of pieces of space debris, significantly increasing the risk of further collisions. The Iridium 33 debris cloud has impacted space traffic management and orbital debris mitigation strategies, making it a subject of ongoing study in space situational awareness.

Loading next visibility...
Identifier
37993, 1993-036BQU
Orbit
LEO
Country
Flag of CISCIS
Related business
Manufacturer
Unknown
Mission
Spacecraft
Bus & Motor
Unknown
Mass
Unknown
Launch date (UTC)
1993-06-16 (33 years ago)
Launch vehicle
Unknown
Launch site
Plesetsk Missile And Space Complex (PKMTR)
Object type
Payload
Rocket body
Debris
Shape & HBR
Unknown shape, 0.1 m
Radar Cross Section
Small (<0.1 m²)

Expand to show TLE details & history
Last TLE update: 1 day ago

TLE from 1 day ago
0 COSMOS 2251 DEB
1 37993U 93036BQU 26034.35151606  .00005227  00000-0  10744-2 0  9998
2 37993  74.0220  66.3847 0018528 148.2371 211.9917 14.60745435660856
Epoch: 2026-02-03T08:26Z
TLE epoch observation values (Epoch: 2026-02-03T08:26:10.987Z)
Latitude
-0.00002°
Longitude
166.30522°
Altitude
704.525 km
Speed
7.498 km/s
True Right ascension
04h 25m 32s
True Declination
0° 00' 00"
Sunlit
Object was in daylight at epoch
Visualization orbit readout
Latitude
Unknown
Longitude
Unknown
Altitude
Unknown
Speed
Unknown
Apparent Right ascension
Unknown
Apparent Declination
Unknown
Sunlit
N/A
Visualization observer readout
Local Sidereal Time
12:21:55
Azimuth
Unknown
Elevation
Unknown
Doppler factor
Unknown
Orbital elements
Apogee altitude
701.459 km
Perigee altitude
675.273 km
Semi-major axis
7,066.503 km
Eccentricity
0.00185
Inclination
74.022°
RAAN
66.3847°
Arg. of periapsis
148.2371°
True anomaly
211.87944°
Mean anomaly
211.9917°
Eccentric anomaly
211.93555°
Mean motion
3.65373 °/min
Orbital period
98.53 mins
BSTAR
0.0010744
Loading maneuver chart data...
Computing Atmospheric mass density...
Loading historical data...
Loading historical data...
Loading historical data...
Loading historical data...
Loading historical data...
Loading historical data...
Loading historical data...

Documentation

Showing up to 5 results
|